EW2997 Weather Reports


Display with metric or nautical units.
time (UTC)temp
F
wind
direction
speed
MPH
gust
MPH
rain 1hr
in
rain 24hr
in
rain mn
in
humidity
%
barometer
mb
20260505122120 65 210 5.0 5.0 0.00 0.00 0.00 64 1014.2
20260505115115 63 180 1.0 1.0 0.00 0.00 0.00 67 1014.5
20260505112114 57 228 0.0 0.0 0.00 0.00 0.00 80 1014.5
20260505102113 54 165 0.0 0.0 0.00 0.00 0.00 84 1013.9
20260505095111 53 210 0.0 0.0 0.00 0.00 0.00 85 1013.9
20260505092111 54 130 0.0 0.0 0.00 0.00 0.00 82 1013.2
20260505085108 55 156 0.0 0.0 0.00 0.00 0.00 82 1013.2
20260505082108 55 136 2.0 2.0 0.00 0.00 0.00 78 1013.2
20260505075104 54 126 2.0 2.0 0.00 0.00 0.00 83 1012.9
20260505072103 55 156 0.0 0.0 0.00 0.00 0.00 79 1012.9
20260505065100 55 164 2.0 2.0 0.00 0.00 0.00 80 1012.5
20260505062100 55 144 2.0 2.0 0.00 0.00 0.00 82 1012.9
20260505055059 58 141 2.0 2.0 0.00 0.00 0.00 77 1012.9
20260505052059 56 144 2.0 2.0 0.00 0.00 0.00 78 1012.9
20260505035051 60 132 2.0 2.0 0.00 0.01 0.01 77 1012.9
20260505032051 58 152 1.0 1.0 0.00 0.01 0.01 80 1012.9
20260505025050 59 146 0.0 0.0 0.00 0.01 0.01 83 1012.9
20260505022045 59 150 2.0 2.0 0.00 0.01 0.01 83 1012.5
20260505015040 58 198 0.0 0.0 0.00 0.01 0.01 85 1012.5
20260505012036 59 156 0.0 0.0 0.00 0.01 0.01 87 1012.5
20260505005032 62 142 1.0 1.0 0.01 0.01 0.01 77 1012.1
20260505002031 69 182 0.0 0.0 0.00 0.00 0.00 50 1011.7
20260504235031 71 178 1.0 1.0 0.00 0.00 0.00 47 1011.4
20260504232029 72 344 2.0 2.0 0.00 0.00 0.00 45 1011.4
20260504225028 74 168 6.0 6.0 0.00 0.00 0.00 42 1011.1
20260504222026 73 216 6.0 7.0 0.00 0.00 0.00 43 1011.4
20260504215025 74 246 7.0 8.0 0.00 0.00 0.00 41 1011.4
20260504212022 74 222 3.0 3.0 0.00 0.00 0.00 42 1011.4
20260504205017 73 179 11.0 12.0 0.00 0.00 0.00 41 1011.4
20260504202013 73 307 6.0 6.0 0.00 0.00 0.00 41 1011.7
20260504195011 73 222 2.0 2.0 0.00 0.00 0.00 41 1012.1
20260504192006 73 258 4.0 5.0 0.00 0.00 0.00 40 1012.9
20260504185003 73 198 6.0 7.0 0.00 0.00 0.00 38 1012.9
20260504182000 72 300 6.0 7.0 0.00 0.00 0.00 43 1013.5
20260504174958 71 204 3.0 3.0 0.00 0.00 0.00 47 1013.9
20260504171957 69 210 6.0 6.0 0.00 0.00 0.00 46 1014.5